Location: Beekmeers
(50.8953°N, 3.6968°E)
Time: 04:13:10
(UTC+00:00)

Cosmos 2228 Rocket - Pass Details

Date: 23 May 2024
Orbit: 616 x 648 km, 82.5° (Epoch: 21 June)

Event Time Altitude Azimuth Distance (km) Brightness Sun altitude
Exits shadow 00:05:24 34° 154° (SSE) 1,040 3.7 -18.3°
Maximum altitude 00:07:04 55° 95° (E) 766 3.5 -18.3°
Drops below altitude 10° 00:11:28 10° 18° (NNE) 2,037 6.9 -18.2°
Sets 00:13:45 0° 14° (NNE) 2,956 8.2 -18.1°
